User: anonymous   Login
Location: Crocus Hill
(18.2167°N, 63.0667°W)
Time: 12:04:08
(UTC+00:00)
Language:

FENGYUN 3A - Orbit

View from above orbital plane
View from above orbital plane
View from above satellite
View from above satellite

Ground track
Ground track

The orbit data is extracted from the following two-line orbital elements,

1 32958U 08026A   20088.87677729 -.00000006  00000-0  16957-4 0  9993
2 32958  98.4017  78.8073 0008129 204.0146 156.0652 14.18621552613402
Epoch (UTC): 28 March 2020 21:02:33
Eccentricity: 0.0008129
inclination: 98.4017°
perigee height: 824 km
apogee height: 836 km
right ascension of ascending node: 78.8073°
argument of perigee: 204.0146°
revolutions per day: 14.18621552
mean anomaly at epoch: 156.0652°
orbit number at epoch: 61340

The dashed part of the orbit path shows where the satellite is in the earth's shadow,  

DLR